User: anonymous   Login
Location: Columbia
(38.9520°N, 92.3340°W)
Time: 21:54:29
(UTC-06:00)
Language:

Iridium 22 - Orbit

View from above orbital plane
View from above orbital plane
View from above satellite
View from above satellite

Ground track
Ground track

The orbit data is extracted from the following two-line orbital elements,

1 24907U 97043E   17050.63168678  .00000167  00000-0  52561-4 0  9990
2 24907  86.3977 305.2421 0002108  83.4496 276.6940 14.34225093 20982
Epoch (UTC): 19 February 2017 15:09:37
Eccentricity: 0.0002108
inclination: 86.3977°
perigee height: 776 km
apogee height: 779 km
right ascension of ascending node: 305.2421°
argument of perigee: 83.4496°
revolutions per day: 14.34225093
mean anomaly at epoch: 276.6940°
orbit number at epoch: 2098

The dashed part of the orbit path shows where the satellite is in the earth's shadow,  

DLR